Weather History for KDFW - November, 2012

Change the Weather History Date:

Tuesday, November 6, 2012

  Actual Average Record
Temperature  
Mean Temperature 60 °F 60 °F  
Max Temperature 74 °F 71 °F 89 °F (1989)
Min Temperature 45 °F 50 °F 27 °F (1959)
Degree Days  
Heating Degree Days 5 6  
Month to date heating degree days 5 33  
Since 1 July heating degree days 103 105  
Cooling Degree Days 0 2  
Month to date cooling degree days 18 12  
Year to date cooling degree days 3301 2735  
Growing Degree Days 10 (Base 50)    
Moisture  
Dew Point 39 °F    
Average Humidity 52    
Maximum Humidity 76    
Minimum Humidity 27    
Precipitation  
Precipitation 0.00 in 0.11 in 2.02 in (1918)
Month to date precipitation 0.00 0.68  
Year to date precipitation 29.26 31.56  
Snow  
Snow 0.00 in 0.00 in 0.00 in ()
Month to date snowfall 0.0 0.0  
Since 1 July snowfall 0.0 0.0  
Since 1 September snowfall 0.0 0.0  
Snow Depth 0.00 in    
Sea Level Pressure  
Sea Level Pressure 30.10 in    
Wind  
Wind Speed 4 mph (NNW)    
Max Wind Speed 12 mph    
Max Gust Speed 23 mph    
Visibility 10 miles    
Events      
T = Trace of Precipitation, MM = Missing Value Source: NWS Daily Summary

Daily Weather History Graph

Daily Weather History Graph

Search for Another Location

Airport or City:

Trip Planner

Search our weather history database for the weather conditions in past years. The results will help you decide how hot, cold, wet, or windy it might be!

Date:

Astronomy

Nov. 06, 2012 Rise Set
Actual Time 6:50 AM CST 5:32 PM CST
Civil Twilight 6:25 AM CST 5:58 PM CST
Nautical Twilight 5:55 AM CST 6:27 PM CST
Astronomical Twilight 5:26 AM CST 6:56 PM CST
Moon No Moon Rise 12:46 PM CST (11/6)
Length of Visible Light 11h 32m
Length of Day
10h 41m
Waning Gibbous, 53% of the Moon is Illuminated
Nov 6
Waning Gibbous
Nov 6
Last Quarter
Nov 13
New
Nov 20
First Quarter
Nov 28
Full

Hourly Weather History & Observations

Time (CST) Temp. Windchill Dew Point Humidity Pressure Visibility Wind Dir Wind Speed Gust Speed Precip Events Conditions
12:53 AM 51.1 °F - 36.0 °F 56% 30.09 in 10.0 mi NNE 5.8 mph - N/A   Partly Cloudy
1:53 AM 50.0 °F - 37.0 °F 61% 30.10 in 10.0 mi North 5.8 mph - N/A   Clear
2:53 AM 48.9 °F - 37.0 °F 64% 30.10 in 10.0 mi North 5.8 mph - N/A   Clear
3:53 AM 46.0 °F 42.5 °F 37.9 °F 73% 30.09 in 10.0 mi North 6.9 mph - N/A   Clear
4:53 AM 46.0 °F 43.1 °F 37.9 °F 73% 30.09 in 10.0 mi North 5.8 mph - N/A   Clear
5:53 AM 46.9 °F - 37.9 °F 71% 30.11 in 10.0 mi North 5.8 mph - N/A   Clear
6:53 AM 46.9 °F - 39.0 °F 74% 30.13 in 10.0 mi NNW 5.8 mph - N/A   Partly Cloudy
7:53 AM 50.0 °F - 41.0 °F 71% 30.14 in 10.0 mi North 4.6 mph - N/A   Partly Cloudy
8:53 AM 54.0 °F - 39.9 °F 59% 30.15 in 10.0 mi North 4.6 mph - N/A   Partly Cloudy
9:53 AM 57.9 °F - 39.0 °F 49% 30.16 in 10.0 mi Calm Calm - N/A   Partly Cloudy
10:53 AM 62.1 °F - 37.9 °F 41% 30.14 in 10.0 mi Calm Calm - N/A   Partly Cloudy
11:53 AM 64.0 °F - 37.0 °F 37% 30.14 in 10.0 mi Calm Calm - N/A   Partly Cloudy
12:53 PM 68.0 °F - 37.0 °F 32% 30.09 in 10.0 mi South 4.6 mph - N/A   Partly Cloudy
1:53 PM 71.1 °F - 37.0 °F 29% 30.06 in 10.0 mi WSW 8.1 mph - N/A   Partly Cloudy
2:53 PM 72.0 °F - 37.0 °F 28% 30.05 in 10.0 mi West 9.2 mph - N/A   Partly Cloudy
3:53 PM 73.0 °F - 37.9 °F 28% 30.04 in 10.0 mi Variable 4.6 mph - N/A   Partly Cloudy
4:53 PM 71.1 °F - 39.0 °F 31% 30.04 in 10.0 mi South 4.6 mph - N/A   Clear
5:53 PM 66.9 °F - 39.0 °F 36% 30.04 in 10.0 mi SE 3.5 mph - N/A   Clear
6:53 PM 64.0 °F - 39.9 °F 41% 30.06 in 10.0 mi Calm Calm - N/A   Clear
7:53 PM 62.1 °F - 41.0 °F 46% 30.07 in 10.0 mi Calm Calm - N/A   Clear
8:53 PM 62.1 °F - 41.0 °F 46% 30.09 in 10.0 mi Calm Calm - N/A   Clear
9:53 PM 62.1 °F - 41.0 °F 46% 30.10 in 10.0 mi Calm Calm - N/A   Clear
10:53 PM 57.0 °F - 46.9 °F 69% 30.10 in 10.0 mi NNW 3.5 mph - N/A   Clear
11:53 PM 59.0 °F - 45.0 °F 60% 30.11 in 10.0 mi Calm Calm - N/A   Clear